Location: Geyikbay?r?
(36.8756°N, 30.4583°E)
Time: 18:58:22
(UTC+00:00)

ATLAS 5 CENTAUR R/B - Pass Details

Date: 24 April 2026
Orbit: 360 x 1064 km, 63.3° (Epoch: 12 May)

Event Time Altitude Azimuth Distance (km) Brightness Sun altitude
Rises 21:05:47 0° 320° (NW) 2,848 5.7 -38.6°
Reaches altitude 10° 21:07:54 10° 315° (NW) 2,046 4.8 -38.8°
Enters shadow 21:08:04 11° 314° (NW) 1,985 4.7 -38.8°
